SANTA FE DAM CA US current weather conditions

sailwx.info

Wind from 119 at 3 knots gusting 6

Air temperature 21.1° C
Dewpoint 10.0° C

Last reported at 2014-Oct-30 15:57 UTC.
Time now 2014-Oct-30 17:40 UTC

Location: N 34°08' W 117°57'.
View on Google Maps.

See reports from other nearby stations

  
Tides and Currents Weather Stations Pressure Air Temp Water Temp Dewpoint Dewpoint Depression Visibility Wind Speed Wind Dir Waves Ship Positions
date/time (UTC)wind fromknots sea level pressurealtimeterstation pressurevisibilityair tempwater tempwave heightnotes
2014-Oct-30 15:57 119 3 gusting 6 21.1
2014-Oct-30 14:57 017 1 gusting 4 14.4
2014-Oct-30 13:57 001 2 gusting 6 13.9
2014-Oct-30 12:57 058 1 gusting 46 13.9
2014-Oct-30 11:57 205 1 gusting 39 13.3
2014-Oct-30 10:57 151 1 gusting 3 13.9
2014-Oct-30 09:57 141 2 gusting 6 16.7
2014-Oct-30 08:57 052 1 gusting 4 15.0
2014-Oct-30 07:57 339 1 gusting 5 15.6
2014-Oct-30 06:57 332 2 gusting 5 16.1
2014-Oct-30 05:57 292 4 gusting 5 16.7
2014-Oct-30 04:57 075 1 gusting 4 16.7
2014-Oct-30 03:57 026 1 gusting 3 18.3
2014-Oct-30 02:57 154 1 gusting 5 20.6
2014-Oct-30 01:57 241 3 gusting 9 22.2
2014-Oct-30 00:57 234 5 gusting 11 26.1
2014-Oct-29 23:57 226 6 gusting 13 30.6
2014-Oct-29 22:57 228 7 gusting 13 32.8
2014-Oct-29 21:57 186 5 gusting 10 33.3
2014-Oct-29 20:57 251 6 gusting 11 32.2
2014-Oct-29 19:57 161 5 gusting 10 32.2
2014-Oct-29 18:57 083 3 gusting 7 32.2
2014-Oct-29 17:57 043 2 gusting 6 29.4
2014-Oct-29 16:57 119 3 gusting 6 26.7
2014-Oct-29 15:57 095 1 gusting 13 23.3
2014-Oct-29 14:57 050 3 gusting 9 19.4
2014-Oct-29 13:57 033 3 gusting 8 17.2
2014-Oct-29 12:57 323 0 gusting 3 15.0
2014-Oct-29 11:57 086 0 gusting 6 15.6
2014-Oct-29 10:57 082 1 gusting 7 15.0
2014-Oct-29 09:57 103 1 gusting 6 14.4
2014-Oct-29 08:57 077 0 gusting 1 13.3
2014-Oct-29 07:57 040 0 gusting 2 13.9
2014-Oct-29 06:57 016 1 gusting 3 15.6
2014-Oct-29 05:57 017 0 gusting 1 15.6
2014-Oct-29 04:57 050 0 gusting 2 16.1
2014-Oct-29 03:57 196 1 gusting 5 17.2
2014-Oct-29 02:57 218 2 gusting 6 18.9
2014-Oct-29 01:57 227 3 gusting 10 21.1
2014-Oct-29 00:57 228 4 gusting 10 25.6
2014-Oct-28 23:57 236 6 gusting 9 28.9
2014-Oct-28 22:57 251 4 gusting 8 30.0
2014-Oct-28 21:57 229 5 gusting 9 30.0
2014-Oct-28 20:57 209 4 gusting 13 30.0
2014-Oct-28 19:57 283 4 gusting 10 28.3
2014-Oct-28 18:57 214 3 gusting 8 27.8
2014-Oct-28 17:57 089 2 gusting 6 25.6